Content
SEND FEEDBACK

Daily
Averages
Monthly
Summary
United States of America

ACHANG BAY, GUAM


Home > North America > United States > Guam
Elevation: 10 meters     Latitude: 13 16N     Longitude: 144 45E

WEATHER
 
SELECT A DAY
Number of Records: 356,513;   Date Range: 1/1/95 - 12/18/14
 
SHARE

PRINT THIS DATA

[ ← Previous Day ]
WEATHER ALMANAC - 4 MAY, 2013
[ Next Day → ]
[ °F ]   °C
Weather ElementAverageHighLow
Temperature26.7 °C30 °C (3:25 pm)26 °C (12:01 am)
Dewpoint24.6 °C25 °C (12:01 am)23 °C (11:15 pm)
Humidity88.8 %94 % (12:01 am)70 % (3:25 pm)
Barometer1012.2 hPa1014.2 hPa (9:55 pm)1011.5 hPa (2:04 am)
Wind Speed17.4 km/h33.3 km/h (3:25 pm)
Wind Gust42.6 km/h (3:25 pm)
Weather ElementAverage
Visibility15.6 km
Wind DirectionESE (96.5 °)

Weather ElementTotal
Precipitation0.51 mm
Cooling Degree Days9.7 (Base 18.3)
Growing Degree Days18 (Base 10)
Averaged from 100 records on 4 May, 2013
WEATHER CONDITIONS BREAKOUT
WIND DIRECTION BREAKOUT
WEATHER BY HOUR - 4 MAY, 2013
[ °F ]   °C
Local TimeTemperatureDewpointHumidityBarometerVisibilityWind DirectionWind SpeedGust SpeedPrecipitationEventsConditions
12:01 AM26 °C25 °C94 %1012.5 hPa16.1 kmEast (100°)11.1 km/hMostly Cloudy
12:09 AM26 °C25 °C94 %1012.2 hPa16.1 kmEast (90°)16.7 km/hMostly Cloudy
12:10 AM26 °C25 °C94 %1012.2 hPa16.1 kmEast (100°)16.7 km/hMostly Cloudy
12:12 AM26 °C25 °C94 %1012.2 hPa16.1 kmEast (100°)16.7 km/hMostly Cloudy
12:13 AM26 °C25 °C94 %1012.2 hPa16.1 kmEast (100°)14.8 km/hMostly Cloudy
12:15 AM26 °C25 °C94 %1012.2 hPa16.1 kmEast (90°)18.5 km/hMostly Cloudy
12:16 AM26 °C25 °C94 %1012.2 hPa16.1 kmEast (100°)16.7 km/hMostly Cloudy
12:17 AM26 °C25 °C94 %1012.2 hPa16.1 kmEast (100°)16.7 km/hMostly Cloudy
12:18 AM26 °C25 °C94 %1012.2 hPa16.1 kmEast (100°)16.7 km/hMostly Cloudy
12:19 AM26 °C25 °C94 %1012.2 hPa16.1 kmEast (90°)16.7 km/hMostly Cloudy
12:28 AM26 °C25 °C94 %1012.2 hPa16.1 kmESE (110°)18.5 km/hMostly Cloudy
12:31 AM26 °C25 °C94 %1012.2 hPa16.1 kmEast (100°)16.7 km/hMostly Cloudy
12:40 AM26 °C25 °C94 %1011.9 hPa16.1 kmESE (110°)14.8 km/hMostly Cloudy
12:41 AM26 °C25 °C94 %1011.9 hPa16.1 kmESE (110°)14.8 km/hMostly Cloudy
12:43 AM26 °C25 °C94 %1011.9 hPa16.1 kmESE (110°)13 km/hMostly Cloudy
12:51 AM26 °C25 °C94 %1011.9 hPa16.1 kmESE (110°)11.1 km/hMostly Cloudy
12:55 AM26.2 °C25 °C93 %1011.9 hPa16.1 kmESE (110°)14.8 km/hMostly Cloudy
1:01 AM26 °C25 °C94 %1011.9 hPa16.1 kmEast (100°)16.7 km/hMostly Cloudy
1:10 AM26 °C25 °C94 %1011.9 hPa16.1 kmEast (100°)11.1 km/hMostly Cloudy
1:13 AM26 °C25 °C94 %1011.9 hPa16.1 kmEast (100°)11.1 km/hScattered Clouds
1:14 AM26 °C25 °C94 %1011.9 hPa16.1 kmEast (100°)11.1 km/hMostly Cloudy
1:15 AM26 °C25 °C94 %1011.9 hPa16.1 kmEast (100°)13 km/hMostly Cloudy
1:18 AM26 °C25 °C94 %1011.9 hPa16.1 kmEast (100°)11.1 km/hScattered Clouds
1:19 AM26 °C25 °C94 %1011.9 hPa16.1 kmEast (100°)11.1 km/hMostly Cloudy
1:20 AM26 °C25 °C94 %1011.9 hPa16.1 kmESE (110°)13 km/hScattered Clouds
1:39 AM26 °C25 °C94 %1011.9 hPa9.7 kmEast (100°)7.4 km/hRainLight Rain
1:40 AM26 °C25 °C94 %1011.9 hPa9.7 kmEast (100°)7.4 km/hRainLight Rain
1:49 AM26 °C25 °C94 %1011.9 hPa12.9 kmESE (110°)14.8 km/hRainLight Rain
1:51 AM26 °C25 °C94 %1011.9 hPa16.1 kmESE (110°)13 km/hRainLight Rain
1:52 AM26 °C25 °C94 %1011.9 hPa16.1 kmEast (100°)13 km/hMostly Cloudy
1:55 AM26 °C25 °C94 %1011.9 hPa16.1 kmEast (100°)11.1 km/h0.51 mmMostly Cloudy
1:58 AM26 °C25 °C94 %1011.9 hPa16.1 kmESE (110°)13 km/hMostly Cloudy
1:59 AM26 °C25 °C94 %1011.9 hPa16.1 kmESE (110°)11.1 km/hMostly Cloudy
2:04 AM26 °C25 °C94 %1011.5 hPa16.1 kmESE (110°)13 km/hMostly Cloudy
2:07 AM26 °C25 °C94 %1011.5 hPa16.1 kmEast (90°)14.8 km/hMostly Cloudy
2:08 AM26 °C25 °C94 %1011.5 hPa16.1 kmEast (90°)14.8 km/hMostly Cloudy
2:09 AM26 °C25 °C94 %1011.5 hPa16.1 kmEast (90°)14.8 km/hMostly Cloudy
2:10 AM26 °C25 °C94 %1011.5 hPa16.1 kmEast (100°)16.7 km/hMostly Cloudy
2:19 AM26 °C25 °C94 %1011.5 hPa16.1 kmEast (100°)20.4 km/hOvercast
2:22 AM26 °C25 °C94 %1011.9 hPa16.1 kmEast (90°)20.4 km/hOvercast
2:26 AM26 °C25 °C94 %1011.9 hPa16.1 kmEast (90°)18.5 km/hMostly Cloudy
2:41 AM26 °C25 °C94 %1011.9 hPa16.1 kmEast (90°)14.8 km/hMostly Cloudy
2:43 AM26 °C25 °C94 %1011.9 hPa16.1 kmEast (100°)16.7 km/hMostly Cloudy
2:46 AM26 °C25 °C94 %1011.9 hPa16.1 kmEast (100°)16.7 km/hMostly Cloudy
2:55 AM26.1 °C24.4 °C90 %1011.9 hPa16.1 kmEast (90°)16.7 km/hMostly Cloudy
2:59 AM26 °C24 °C89 %1011.9 hPa16.1 kmEast (90°)14.8 km/hMostly Cloudy
3:08 AM26 °C24 °C89 %1011.9 hPa16.1 kmEast (100°)14.8 km/hMostly Cloudy
3:09 AM26 °C24 °C89 %1011.9 hPa16.1 kmEast (90°)14.8 km/hMostly Cloudy
3:23 AM26 °C24 °C89 %1011.9 hPa16.1 kmEast (90°)14.8 km/hMostly Cloudy
3:27 AM26 °C24 °C89 %1011.5 hPa16.1 kmEast (90°)13 km/hMostly Cloudy
3:40 AM26 °C24 °C89 %1011.9 hPa16.1 kmEast (90°)16.7 km/hMostly Cloudy
3:42 AM26 °C24 °C89 %1011.9 hPa16.1 kmEast (90°)16.7 km/hMostly Cloudy
3:55 AM26.1 °C24.1 °C89 %1011.9 hPa16.1 kmEast (90°)13 km/hMostly Cloudy
4:55 AM26 °C24 °C89 %1011.9 hPa16.1 kmEast (80°)14.8 km/hMostly Cloudy
5:03 AM26 °C24 °C89 %1011.9 hPa14.5 kmEast (80°)14.8 km/hRainLight Rain
5:07 AM26 °C24 °C89 %1011.9 hPa14.5 kmEast (90°)16.7 km/hRainLight Rain
5:12 AM26 °C24 °C89 %1011.9 hPa16.1 kmEast (80°)20.4 km/hOvercast
5:35 AM26 °C24 °C89 %1011.9 hPa16.1 kmEast (90°)14.8 km/hMostly Cloudy
5:46 AM26 °C24 °C89 %1011.9 hPa16.1 kmEast (90°)16.7 km/hMostly Cloudy
5:55 AM26 °C24.1 °C89 %1011.9 hPa16.1 kmEast (90°)14.8 km/h0 mmMostly Cloudy
6:05 AM26 °C24 °C89 %1011.9 hPa16.1 kmEast (90°)16.7 km/hScattered Clouds
6:55 AM26.4 °C24.2 °C88 %1011.9 hPa16.1 kmEast (100°)18.5 km/hPartly Cloudy
7:33 AM27 °C25 °C89 %1012.5 hPa16.1 kmEast (80°)22.2 km/hMostly Cloudy
7:38 AM27 °C25 °C89 %1012.5 hPa16.1 kmEast (80°)18.5 km/hMostly Cloudy
7:48 AM27 °C25 °C89 %1012.9 hPa16.1 kmEast (90°)22.2 km/hMostly Cloudy
7:55 AM26.8 °C24.7 °C88 %1012.9 hPa16.1 kmEast (80°)22.2 km/hMostly Cloudy
7:57 AM27 °C25 °C89 %1012.9 hPa16.1 kmEast (90°)22.2 km/hScattered Clouds
8:14 AM27 °C25 °C89 %1012.9 hPa12.9 kmEast (90°)22.2 km/hRainLight Rain
8:15 AM27 °C25 °C89 %1012.9 hPa9.7 kmEast (90°)20.4 km/hRainRain
8:16 AM27 °C25 °C89 %1012.9 hPa8 kmEast (90°)16.7 km/hRainRain
8:19 AM27 °C25 °C89 %1012.9 hPa8 kmEast (100°)22.2 km/hRainHeavy Rain
8:26 AM27 °C25 °C89 %1012.9 hPa14.5 kmEast (90°)22.2 km/hMostly Cloudy
8:27 AM27 °C25 °C89 %1012.9 hPa16.1 kmEast (100°)20.4 km/hMostly Cloudy
8:45 AM28 °C25 °C84 %1013.2 hPa16.1 kmEast (100°)25.9 km/hMostly Cloudy
8:47 AM28 °C25 °C84 %1013.2 hPa16.1 kmEast (100°)22.2 km/hScattered Clouds
8:55 AM28.4 °C25 °C82 %1012.9 hPa16.1 kmEast (100°)24.1 km/h0 mmPartly Cloudy
9:55 AM28.3 °C24.5 °C80 %1013.2 hPa16.1 kmESE (110°)20.4 km/hPartly Cloudy
10:05 AM28 °C24 °C79 %1013.2 hPa16.1 kmEast (100°)22.2 km/hMostly Cloudy
10:35 AM29 °C25 °C79 %1013.2 hPa16.1 kmESE (110°)24.1 km/hScattered Clouds
10:55 AM28.9 °C24.7 °C78 %1012.9 hPa16.1 kmEast (100°)25.9 km/hPartly Cloudy
11:55 AM29.1 °C24.8 °C77 %1012.9 hPa16.1 kmEast (100°)24.1 km/h33.3 km/hScattered Clouds
12:55 PM29.4 °C24.9 °C77 %1012.5 hPa16.1 kmEast (90°)20.4 km/hMostly Cloudy
1:55 PM29.4 °C24.2 °C73 %1011.9 hPa16.1 kmEast (100°)24.1 km/hScattered Clouds
1:56 PM29 °C24 °C74 %1011.9 hPa16.1 kmEast (100°)22.2 km/hMostly Cloudy
2:09 PM29 °C24 °C74 %1011.9 hPa16.1 kmEast (90°)24.1 km/hScattered Clouds
2:55 PM29.5 °C24.6 °C75 %1011.9 hPa16.1 kmEast (100°)20.4 km/hScattered Clouds
3:25 PM30 °C24 °C70 %1011.9 hPa16.1 kmESE (120°)33.3 km/h42.6 km/hMostly Cloudy
3:34 PM28 °C24 °C79 %1011.9 hPa16.1 kmESE (120°)29.6 km/h42.6 km/hMostly Cloudy
3:42 PM28 °C24 °C79 %1011.9 hPa16.1 kmSE (130°)24.1 km/hMostly Cloudy
3:47 PM28 °C24 °C79 %1011.9 hPa16.1 kmESE (110°)18.5 km/hScattered Clouds
3:55 PM27.8 °C24 °C80 %1011.9 hPa16.1 kmEast (80°)16.7 km/hMostly Cloudy
4:55 PM27.7 °C23.2 °C76 %1011.9 hPa16.1 kmEast (100°)16.7 km/hScattered Clouds
5:55 PM27.4 °C24.1 °C82 %1012.5 hPa16.1 kmEast (90°)14.8 km/hClear
6:55 PM26.3 °C24.2 °C88 %1012.9 hPa16.1 kmENE (70°)18.5 km/hClear
7:55 PM26.3 °C24 °C87 %1013.5 hPa16.1 kmEast (80°)14.8 km/hPartly Cloudy
8:55 PM26.4 °C24 °C87 %1013.9 hPa16.1 kmEast (90°)18.5 km/hClear
9:55 PM26.4 °C24.3 °C88 %1014.2 hPa16.1 kmEast (90°)14.8 km/hPartly Cloudy
10:55 PM26.5 °C24 °C86 %1014.2 hPa16.1 kmEast (90°)16.7 km/hMostly Cloudy
11:15 PM26 °C23 °C83 %1013.9 hPa16.1 kmEast (80°)16.7 km/hScattered Clouds
11:55 PM26.4 °C23.5 °C84 %1013.9 hPa16.1 kmEast (80°)24.1 km/hPartly Cloudy
Hourly data recorded from PGUA, located 0 kilometers away from Achang Bay, Guam







STORIES FROM OUR PARTNERS